Weather History for Brest, France

Change the Weather History Date:

Saturday, April 28, 2012

  Actual Average Record
Temperature  
Mean Temperature 49 °F -  
Max Temperature 56 °F 59 °F 60 °F (2007)
Min Temperature 42 °F 47 °F 36 °F (2013)
Degree Days  
Heating Degree Days 16    
Moisture  
Dew Point 45 °F    
Average Humidity 89    
Maximum Humidity 100    
Minimum Humidity 64    
Precipitation  
Precipitation 0.01 in 0.10 in - ()
Sea Level Pressure  
Sea Level Pressure 29.85 in    
Wind  
Wind Speed 7 mph ()    
Max Wind Speed 22 mph    
Max Gust Speed 32 mph    
Visibility 5.9 miles    
Events Fog , Rain    
Averages and records for this station are not official NWS values.
T = Trace of Precipitation, MM = Missing Value Source: Averaged Metar Reports

Daily Weather History Graph

Daily Weather History Graph

Search for Another Location

Airport:

Trip Planner

Search our weather history database for the weather conditions in past years. The results will help you decide how hot, cold, wet, or windy it might be!

Date:

Astronomy

Apr. 28, 2012 Rise Set
Actual Time 7:02 AM CEST 9:28 PM CEST
Civil Twilight 6:28 AM CEST 10:03 PM CEST
Nautical Twilight 5:44 AM CEST 10:46 PM CEST
Astronomical Twilight 4:54 AM CEST 11:37 PM CEST
Moon 12:24 PM CEST (4/28) 2:48 AM CEST (4/28)
Length of Visible Light 15h 34m
Length of Day
14h 25m
Waxing Crescent, 40% of the Moon is Illuminated
Apr 28
Waxing Crescent
Apr 29
First Quarter
May 6
Full
May 12
Last Quarter
May 21
New

Hourly Weather History & Observations

Time (CEST) Temp. Windchill Dew Point Humidity Pressure Visibility Wind Dir Wind Speed Gust Speed Precip Events Conditions
12:05 AM 46.4 °F - 44.6 °F 93% 29.89 in 6.2 mi Variable 2.3 mph - N/A   Scattered Clouds
12:37 AM 46.4 °F 44.3 °F 44.6 °F 93% 29.89 in 6.2 mi ESE 4.6 mph - N/A   Scattered Clouds
1:00 AM 46.4 °F 45.2 °F 44.6 °F 93% 29.89 in 6.2 mi SE 3.5 mph - N/A   Mostly Cloudy
1:30 AM 46.4 °F 45.2 °F 44.6 °F 93% 29.89 in 6.2 mi ENE 3.5 mph - N/A   Mostly Cloudy
2:00 AM 45 °F - 44 °F 96% 29.92 in 6 mi ENE 3.5 mph - -   Partly Cloudy
2:00 AM 44.6 °F 42.2 °F 44.6 °F 100% 29.89 in 6.2 mi ENE 4.6 mph - N/A   Mostly Cloudy
2:30 AM 44.6 °F - 44.6 °F 100% 29.89 in 6.2 mi SE 2.3 mph - N/A   Mostly Cloudy
3:00 AM 44.6 °F - 44.6 °F 100% 29.89 in 6.2 mi East 2.3 mph - N/A   Mostly Cloudy
3:30 AM 44.6 °F 41.4 °F 44.6 °F 100% 29.89 in 6.2 mi East 5.8 mph - N/A   Mostly Cloudy
4:00 AM 44.6 °F 42.2 °F 44.6 °F 100% 29.89 in 6.2 mi ESE 4.6 mph - N/A   Mostly Cloudy
4:30 AM 44.6 °F - 42.8 °F 93% 29.89 in 6.2 mi Calm Calm - N/A   Mostly Cloudy
5:00 AM 44.6 °F - 42.8 °F 93% 29.89 in 6.2 mi Variable 2.3 mph - N/A   Mostly Cloudy
5:30 AM 42.8 °F - 41.0 °F 93% 29.89 in 6.2 mi Calm Calm - N/A   Scattered Clouds
6:00 AM 42.8 °F - 41.0 °F 93% 29.89 in 6.2 mi Calm Calm - N/A   Scattered Clouds
6:30 AM 42.8 °F 40.1 °F 42.8 °F 100% 29.86 in 6.2 mi NNE 4.6 mph - N/A   Scattered Clouds
7:00 AM 42.8 °F 39.3 °F 42.8 °F 100% 29.86 in 6.2 mi NE 5.8 mph - N/A   Scattered Clouds
7:30 AM 42.8 °F 40.1 °F 42.8 °F 100% 29.89 in 2.5 mi NNE 4.6 mph - N/A   Mostly Cloudy
8:00 AM 43 °F - 43 °F 100% 29.89 in 2 mi North 3.5 mph - - Fog Patches of Fog
8:00 AM 42.8 °F 41.1 °F 42.8 °F 100% 29.86 in 2.5 mi North 3.5 mph - N/A Fog Fog
8:30 AM 42.8 °F - 42.8 °F 100% 29.89 in 4.3 mi Calm Calm - N/A   Scattered Clouds
9:00 AM 46.4 °F 45.2 °F 46.4 °F 100% 29.89 in 6.2 mi Variable 3.5 mph - N/A   Scattered Clouds
9:30 AM 46.4 °F 43.5 °F 46.4 °F 100% 29.89 in 6.2 mi North 5.8 mph - N/A   Scattered Clouds
10:00 AM 51.8 °F - 48.2 °F 88% 29.89 in 6.2 mi NNE 5.8 mph - N/A   Mostly Cloudy
10:30 AM 51.8 °F - 48.2 °F 88% 29.89 in 6.2 mi NNE 9.2 mph - N/A   Mostly Cloudy
11:00 AM 53.6 °F - 48.2 °F 82% 29.89 in 6.2 mi NE 10.4 mph - N/A   Mostly Cloudy
11:30 AM 53.6 °F - 48.2 °F 82% 29.89 in 6.2 mi NNE 10.4 mph - N/A   Mostly Cloudy
12:00 PM 53.6 °F - 48.2 °F 82% 29.89 in 6.2 mi NNE 11.5 mph - N/A   Mostly Cloudy
12:30 PM 53.6 °F - 46.4 °F 77% 29.89 in 6.2 mi NNE 11.5 mph - N/A   Scattered Clouds
1:00 PM 53.6 °F - 46.4 °F 77% 29.86 in 6.2 mi NNE 13.8 mph - N/A   Scattered Clouds
1:30 PM 55.4 °F - 46.4 °F 72% 29.86 in 6.2 mi NNE 15.0 mph - N/A   Scattered Clouds
2:00 PM 56 °F - 47 °F 64% 29.87 in 16 mi NNE 16.1 mph - -   Mostly Cloudy
2:00 PM 55.4 °F - 46.4 °F 72% 29.86 in 6.2 mi NNE 16.1 mph - N/A   Scattered Clouds
2:30 PM 55.4 °F - 48.2 °F 77% 29.86 in 6.2 mi NNE 12.7 mph - N/A   Mostly Cloudy
3:00 PM 55.4 °F - 48.2 °F 77% 29.83 in 6.2 mi NNE 13.8 mph - N/A   Scattered Clouds
3:30 PM 55.4 °F - 46.4 °F 72% 29.83 in 6.2 mi ENE 16.1 mph - N/A   Scattered Clouds
4:00 PM 53.6 °F - 46.4 °F 77% 29.83 in 6.2 mi NE 18.4 mph - N/A   Mostly Cloudy
4:30 PM 55.4 °F - 46.4 °F 72% 29.83 in 6.2 mi NE 18.4 mph - N/A   Mostly Cloudy
5:00 PM 53.6 °F - 46.4 °F 77% 29.83 in 6.2 mi NE 17.3 mph - N/A   Mostly Cloudy
5:30 PM 51.8 °F - 46.4 °F 82% 29.80 in 6.2 mi NE 13.8 mph - N/A   Mostly Cloudy
6:00 PM 51.8 °F - 44.6 °F 76% 29.80 in 6.2 mi NE 20.7 mph - N/A   Mostly Cloudy
6:30 PM 50.0 °F - 46.4 °F 87% 29.80 in 6.2 mi NE 19.6 mph - N/A   Mostly Cloudy
7:00 PM 50.0 °F - 46.4 °F 87% 29.80 in 5.0 mi NE 18.4 mph - N/A   Mostly Cloudy
7:30 PM 48.2 °F - 46.4 °F 93% 29.80 in 3.1 mi NE 17.3 mph - N/A   Light Drizzle
8:00 PM 48 °F - 46 °F 92% 29.82 in 6 mi NE 16.1 mph - - Rain Light Drizzle
8:00 PM 48.2 °F - 46.4 °F 93% 29.80 in 6.2 mi NE 16.1 mph - N/A   Mostly Cloudy
8:30 PM 48.2 °F - 46.4 °F 93% 29.80 in 6.2 mi NE 13.8 mph - N/A   Mostly Cloudy
9:00 PM 48.2 °F - 44.6 °F 87% 29.77 in 6.2 mi NE 17.3 mph - N/A   Light Drizzle
9:30 PM 48.2 °F - 46.4 °F 93% 29.77 in 6.2 mi NE 18.4 mph - N/A   Light Drizzle
10:00 PM 48.2 °F - 46.4 °F 93% 29.77 in 5.0 mi NE 21.9 mph - N/A Rain Light Rain
10:30 PM 48.2 °F - 44.6 °F 87% 29.74 in 5.0 mi NNE 21.9 mph - N/A Rain Light Rain
11:00 PM 48.2 °F - 46.4 °F 93% 29.74 in 4.3 mi NNE 20.7 mph - N/A Rain Light Rain
11:30 PM 48.2 °F - 46.4 °F 93% 29.71 in 3.1 mi NNE 19.6 mph 32.2 mph N/A Rain Light Rain